Flag for Canada Weather past 2 weeks in Owen Sound, Ontario, Canada

Now
63 °F

Scattered clouds.


Feels Like: 63 °F
Forecast: N/A
Wind: 12 mph from Northwest

Location: Wiarton

Current Time: Aug 27, 2014 at 7:12:35 PM

Latest Report: Aug 27, 2014 at 6:00 PM


Visibility: 15 mi

Pressure: 30.09 "Hg

Humidity: 68%

Dew point: 52 °F

Location of Owen SoundLocation

Historic Weather in Owen Sound — Graph

°F

Owen Sound temperature yesterday

Maximum temperature yesterday: 77 °F (at 2:00 PM)
Minimum temperature yesterday: 64 °F (at 11:00 PM)
Average temperature yesterday: 71 °F

Past Weeks' High & Low Weather Summary

 TemperatureHumidityPressure
High81 °F (Aug 25, 3:00 PM)100% (Aug 15, 1:00 AM)30.19 "Hg (Aug 15, 1:00 AM)
Low46 °F (Aug 18, 3:00 AM)56% (Aug 15, 4:00 PM)29.66 "Hg (Aug 12, 6:00 PM)
Average63 °F85%29.96 "Hg
* Reported Aug 12 6:00 PM — Aug 27 6:00 PM, Owen Sound, Weather by CustomWeather, © 2014

Note: Actual official high and low records may vary slightly from our data, if they occured in-between our weather recording intervals... More about our weather records

Advertising

Owen Sound weather history for previous 24 hours

 ConditionsComfort  
Time TempWeatherWind HumidityBarometerVisibility
6:00 PM
Aug 27
63 °FScattered clouds.12 mph68%30.09 "Hg15 mi
5:00 PM64 °FPartly sunny.9 mph64%30.10 "Hg15 mi
4:00 PM64 °FPartly sunny.10 mph68%30.09 "Hg15 mi
3:00 PM63 °FPartly sunny.13 mph73%30.09 "Hg15 mi
2:00 PM63 °FBroken clouds.8 mph77%30.11 "Hg15 mi
1:00 PM64 °FBroken clouds.9 mph73%30.10 "Hg15 mi
12:00 PM64 °FBroken clouds.9 mph73%30.10 "Hg15 mi
11:00 AM61 °FMostly cloudy.8 mph77%30.10 "Hg15 mi
10:00 AM61 °FBroken clouds.9 mph83%30.10 "Hg15 mi
9:00 AM61 °FBroken clouds.7 mph83%30.09 "Hg15 mi
8:00 AM55 °FPartly sunny.No wind94%30.09 "Hg15 mi
7:00 AM52 °FPassing clouds.No wind100%30.09 "Hg15 mi
6:00 AM54 °FPassing clouds.2 mph88%30.09 "Hg15 mi
5:00 AM55 °FClear.No wind88%30.07 "Hg15 mi
4:00 AM57 °FClear.No wind88%30.07 "Hg15 mi
3:00 AM59 °FClear.No wind82%30.07 "Hg15 mi
2:00 AM61 °FPassing clouds.5 mph77%30.07 "Hg15 mi
1:00 AM63 °FOvercast.3 mph73%30.06 "Hg15 mi
12:00 AM64 °FOvercast.3 mph68%30.04 "Hg15 mi
11:00 PM
Aug 26
64 °FOvercast.5 mph78%30.05 "Hg15 mi
10:00 PM66 °FOvercast.5 mph78%30.02 "Hg15 mi
9:00 PM66 °FOvercast.5 mph78%30.03 "Hg15 mi
8:00 PM68 °FOvercast.5 mph73%30.03 "Hg15 mi
7:00 PM68 °FOvercast.5 mph73%30.01 "Hg15 mi
Weather by CustomWeather, © 2014

See weather overviewHow to use our weather pages